Regional Weather Roundup
Issued by NWS

Home | Current Version | Previous Version | Graphics & Text | Print | Product List | Glossary On
Versions: 1 2 3 4 5 6 7 8 9 10 11 12 13 14 15 16 17 18 19 20 21 22 23 24 25 26 27 28 29 30 31 32 33 34 35 36 37 38 39 40 41 42 43 44 45 46 47 48 49 50
000
ASUS45 KCYS 300010
RWRWY

WYOMING REGIONAL WEATHER ROUNDUP
NATIONAL WEATHER SERVICE CHEYENNE WY
600 PM MDT FRI APR 29 2016

NOTE:  "FAIR" INDICATES FEW OR NO CLOUDS BELOW 12,000 FEET
WITH NO SIGNIFICANT WEATHER AND/OR OBSTRUCTIONS TO VISIBILITY.

WYZ001-300100-
YELLOWSTONE NATIONAL PARK

CITY           SKY/WX    TMP DP  RH WIND       PRES   REMARKS
LK YELLOWSTONE   N/A     40  25  55 VRB3      29.89R
6HR MIN TEMP:  36; 6HR MAX TEMP:  44;

W YELLOWSTONE  NOT AVBL

$$
WYZ002>013-054>058-071-098>099-300100-
NORTHERN WYOMING

CITY           SKY/WX    TMP DP  RH WIND       PRES   REMARKS
JACKSON        PTSUNNY   46  27  46 NW7       29.82
CODY           CLOUDY    45  30  57 CALM      29.94R
GREYBULL       CLOUDY    51  28  41 SW6       29.92R
6HR MIN TEMP:  47; 6HR MAX TEMP:  53;

WORLAND        CLOUDY    47  31  53 SE5       29.93R
6HR MIN TEMP:  46; 6HR MAX TEMP:  49;

SHERIDAN       CLOUDY    47  32  56 E6        29.97S
6HR MIN TEMP:  44; 6HR MAX TEMP:  47;

BUFFALO          N/A    N/A N/A N/A MISG      29.97F
GILLETTE       CLOUDY    43  36  76 E12       29.97R
6HR MIN TEMP:  43; 6HR MAX TEMP:  46;

HULETT         CLOUDY    43  32  65 E20G25    30.01S
NEWCASTLE      CLOUDY    45  32  61 E10       29.98S

$$
WYZ014>020-022>026-101>103-300100-
CENTRAL WYOMING

CITY           SKY/WX    TMP DP  RH WIND       PRES   REMARKS
BIG PINEY      FAIR      44  23  43 SE8       29.87R
6HR MIN TEMP:  38; 6HR MAX TEMP:  47;

PINEDALE       MOCLDY    43  27  52 S12       29.87S
DUBOIS         CLOUDY    34  30  86 SE10G18   29.90R HAZE    WCI  26
LANDER         LGT RAIN  35  33  92 W5        29.93R FOG     WCI  31
6HR MIN TEMP:  35; 6HR MAX TEMP:  40; 6HR PCP:  0.05;

RIVERTON       LGT RAIN  37  34  89 CALM      29.95R
6HR MIN TEMP:  36; 6HR MAX TEMP:  42; 6HR PCP:  0.09;

CASPER         LGT RAIN  36  33  89 E12       29.94R FOG     WCI  28
6HR MIN TEMP:  36; 6HR MAX TEMP:  42; 6HR PCP:  0.03;

DOUGLAS        CLOUDY    40  33  76 E13       29.97R WCI  32
6HR MIN TEMP:  39; 6HR MAX TEMP:  42; 6HR PCP: TRACE;


$$
WYZ021-027>030-104>119-300100-
SOUTHERN WYOMING

CITY           SKY/WX    TMP DP  RH WIND       PRES   REMARKS
EVANSTON       CLOUDY    43  26  51 NE5       29.86S
6HR MIN TEMP:  35; 6HR MAX TEMP:  45;

KEMMERER         N/A     39  27  60 E3        29.88S
FORT BRIDGER   CLOUDY    41  32  70 CALM      29.91R
ROCK SPRINGS   CLOUDY    40  29  64 NE12      29.89R WCI  33
6HR MIN TEMP:  35; 6HR MAX TEMP:  41;

DIXON          CLOUDY    44  32  61 N10       29.85S
RAWLINS        CLOUDY    34  30  85 NE18      29.87S FOG     WCI  23
6HR MIN TEMP:  34; 6HR MAX TEMP:  39;

SARATOGA       DRIZZLE   36  34  93 NW6       29.84S WCI  31
LARAMIE        LGT SNOW  30  29  96 SE7       29.88S VSB 1   WCI  23
6HR MIN TEMP:  30; 6HR MAX TEMP:  34; 6HR PCP:  0.02;

CHEYENNE       LGT SNOW  32  30  92 N5        29.90F FOG     WCI  27
6HR MIN TEMP:  32; 6HR MAX TEMP:  34; 6HR PCP:  0.21;

TORRINGTON     LGT RAIN  37  35  92 E12       29.96R FOG     WCI  29
6HR MIN TEMP:  37; 6HR MAX TEMP:  44; 6HR PCP:  0.08;

PINE BLUFFS    LGT SNOW  32  32 100 N5        29.93F VSB 1   WCI  27

$$



USA.gov is the U.S. government's official web portal to all federal, state and local government web resources and services.